Weather History for Grand Canyon, AZ

Change the Weather History Date:

Sunday, October 23, 2011

  Actual Average Record
Temperature  
Mean Temperature 50 °F -  
Max Temperature 72 °F 57 °F 75 °F (2003)
Min Temperature 28 °F 26 °F 12 °F (1996)
Degree Days  
Heating Degree Days 15    
Moisture  
Dew Point 22 °F    
Average Humidity 42    
Maximum Humidity 72    
Minimum Humidity 17    
Precipitation  
Precipitation 0.00 in - - ()
Sea Level Pressure  
Sea Level Pressure 30.18 in    
Wind  
Wind Speed 4 mph (ENE)    
Max Wind Speed 13 mph    
Max Gust Speed 22 mph    
Visibility 10 miles    
Events      
Averages and records for this station are not official NWS values.
T = Trace of Precipitation, MM = Missing Value Source: NWS Daily Summary

Daily Weather History Graph

Daily Weather History Graph

Search for Another Location

Airport:

Trip Planner

Search our weather history database for the weather conditions in past years. The results will help you decide how hot, cold, wet, or windy it might be!

Date:

Astronomy

Oct. 23, 2011 Rise Set
Actual Time 6:42 AM MST 5:43 PM MST
Civil Twilight 6:16 AM MST 6:09 PM MST
Nautical Twilight 5:46 AM MST 6:38 PM MST
Astronomical Twilight 5:16 AM MST 7:08 PM MST
Moon 3:00 AM MST (10/23) 3:30 PM MST (10/23)
Length of Visible Light 11h 52m
Length of Day
11h 00m
Waning Crescent, 13% of the Moon is Illuminated
Oct 23
Waning Crescent
Oct 26
New
Nov 2
First Quarter
Nov 10
Full
Nov 18
Last Quarter

Hourly Weather History & Observations

Time (MST) Temp. Windchill Dew Point Humidity Pressure Visibility Wind Dir Wind Speed Gust Speed Precip Events Conditions
12:54 AM 33.1 °F 28.7 °F 21.0 °F 61% 30.16 in 8.0 mi ENE 4.6 mph - N/A   Clear
1:54 AM 30.0 °F - 19.9 °F 66% 30.18 in 10.0 mi Calm Calm - N/A   Clear
2:54 AM 30.2 °F 25.4 °F 19.4 °F 64% 30.32 in 10.0 mi ENE 4.6 mph - N/A   Clear
3:54 AM 32.0 °F 24.2 °F 21.0 °F 64% 30.14 in 10.0 mi NE 9.2 mph - N/A   Clear
4:54 AM 30.0 °F - 21.0 °F 69% 30.17 in 10.0 mi Calm Calm - N/A   Clear
5:54 AM 28.0 °F - 19.9 °F 72% 30.25 in 10.0 mi Calm Calm - N/A   Clear
6:54 AM 28.0 °F - 19.9 °F 72% 30.31 in 10.0 mi Calm Calm - N/A   Clear
7:54 AM 42.1 °F - 25.0 °F 51% 30.27 in 10.0 mi Calm Calm - N/A   Clear
8:54 AM 60.1 °F - 24.1 °F 25% 30.21 in 10.0 mi ENE 9.2 mph - N/A   Clear
9:54 AM 64.0 °F - 23.0 °F 21% 30.21 in 10.0 mi East 8.1 mph - N/A   Clear
10:54 AM 66.9 °F - 24.1 °F 20% 30.20 in 10.0 mi East 8.1 mph 21.9 mph N/A   Clear
11:54 AM 69.1 °F - 24.1 °F 18% 30.17 in 10.0 mi Variable 5.8 mph - N/A   Clear
12:54 PM 72.0 °F - 24.1 °F 17% 30.12 in 10.0 mi NE 12.7 mph 16.1 mph N/A   Clear
1:54 PM 72.0 °F - 24.1 °F 17% 30.12 in 10.0 mi NE 10.4 mph - N/A   Clear
2:54 PM 72.0 °F - 24.1 °F 17% 30.10 in 10.0 mi NE 10.4 mph - N/A   Clear
3:54 PM 71.1 °F - 24.1 °F 17% 30.09 in 10.0 mi NE 9.2 mph - N/A   Clear
4:54 PM 68.0 °F - 23.0 °F 18% 30.12 in 10.0 mi SSE 9.2 mph - N/A   Clear
5:54 PM 61.0 °F - 24.1 °F 24% 30.16 in 10.0 mi East 3.5 mph - N/A   Clear
6:54 PM 48.2 °F - 24.8 °F 40% 30.28 in 10.0 mi ENE 3.5 mph - N/A   Clear
7:54 PM 44.1 °F - 21.9 °F 42% 30.19 in 10.0 mi Calm Calm - N/A   Clear
8:54 PM 41.0 °F - 21.9 °F 47% 30.12 in 10.0 mi Calm Calm - N/A   Clear
9:54 PM 37.0 °F - 21.0 °F 52% 30.13 in 10.0 mi Calm Calm - N/A   Clear
10:54 PM 35.1 °F - 21.0 °F 57% 30.13 in 10.0 mi Calm Calm - N/A   Clear
11:54 PM 32.0 °F 28.7 °F 19.9 °F 61% 30.13 in 10.0 mi NE 3.5 mph - N/A   Clear